Location: Township of South Roscoe
(37.9570°N, 100.1180°W)
Time: 02:45:31
(UTC+00:00)

PRISM - Visible Passes

Search period start: 28 June 2022 00:00
Search period end: 08 July 2022 00:00
Orbit: 556 x 578 km, 98.2° (Epoch: 27 June)

Date Brightness Start Highest point End Pass type
(mag) Time Alt. Az. Time Alt. Az. Time Alt. Az.
28 Jun ? 10:39:48 10° ENE 10:42:01 14° E 10:44:14 10° SE visible
29 Jun ? 10:40:44 10° ENE 10:43:01 15° E 10:45:16 10° SE visible
30 Jun ? 10:41:40 10° ENE 10:43:59 15° E 10:46:19 10° SE visible
01 Jul ? 10:42:35 10° ENE 10:44:58 15° E 10:47:20 10° SE visible
02 Jul ? 10:43:31 10° NE 10:45:56 16° E 10:48:22 10° SE visible
03 Jul ? 10:44:26 10° NE 10:46:54 16° E 10:49:23 10° SE visible
04 Jul ? 10:45:20 10° NE 10:47:51 16° E 10:50:23 10° SE visible
05 Jul ? 10:46:15 10° NE 10:48:49 16° E 10:51:23 10° SE visible
06 Jul ? 10:47:09 10° NE 10:49:46 17° E 10:52:22 10° SE visible
07 Jul ? 10:48:03 10° NE 10:50:42 17° E 10:53:22 10° SE visible
